sat.trackr.live / text

‹ back to catalog

GEOSCAN 3 (RS92S3)

NORAD 64893 · 2025-155T

PAYLOAD ACTIVE UNKNOWN

§ Identity

Operator
Country
CIS
Launch date
2025-07-25
Launch site
VOSTO
Launch vehicle
Mass (kg)
RCS (m²)

Purposes: comms

External: N2YO · Heavens-Above · Gunter

§ Orbital elements

Epoch: 2026-09-19T22:10:17.953824Z

Period
93.60 min
Inclination
97.4645°
Eccentricity
0.0005303
Mean motion
15.38433097 rev/d
Perigee alt
447.1 km
Apogee alt
454.4 km
Semi-major
6,828.9 km
B*
3.9814e-4
RAAN
234.1741°
Arg perigee
176.0463°
Mean anomaly
184.0825°
Rev number
9,540

§ Raw data

GEOSCAN 3 (RS92S3)1 64893U 25155T   26262.92381891  .00015027  00000+0  39814-3 0  99992 64893  97.4645 234.1741 0005303 176.0463 184.0825 15.38433097 95406

JSON: /api/v1/satellites/64893 · /tle

For live sub-satellite position, see the globe view (requires WebGL).

§ Visibility from observer

Set your observer location to see the next 7 days of passes ≥ 10°. The values pass through the URL so the page stays shareable.

No JS? Fill the form by hand. The geolocation button needs JavaScript.

§ Radio — SatNOGS DB

ModeDescriptionDownlinkUplink
GFSK Mode U - GFSK9k6 - AX.25 Beacon and Ham Payload (Geoscan framing) 435.740 MHz

1 transmitter · refreshed weekly from db.satnogs.org